Time,TemperatureF,DewpointF,PressureIn,WindDirection,WindDirectionDegrees,WindSpeedMPH,WindSpeedGustMPH,Humidity,HourlyPrecipIn,Conditions,Clouds,dailyrainin,SolarRadiationWatts/m^2,SoftwareType,DateUTC
2013-03-10 00:02:00,20.0,4.0,-100.00,WSW,243,3.0,8.0,48,0.00,,,0.12,1.000000,,2013-03-10 07:02:00,
2013-03-10 00:11:00,20.0,4.0,-100.00,WSW,243,3.0,8.0,48,0.00,,,0.12,1.000000,,2013-03-10 07:11:00,
2013-03-10 00:21:00,20.0,4.0,-100.00,WSW,243,3.0,8.0,48,0.00,,,0.12,1.000000,,2013-03-10 07:21:00,
2013-03-10 00:42:00,18.0,6.0,-100.00,West,273,3.0,6.0,58,0.00,,,0.12,1.000000,,2013-03-10 07:42:00,
2013-03-10 00:52:00,18.0,6.0,-100.00,West,273,3.0,6.0,58,0.00,,,0.12,1.000000,,2013-03-10 07:52:00,
2013-03-10 01:01:00,18.0,6.0,-100.00,West,273,3.0,6.0,58,0.00,,,0.12,1.000000,,2013-03-10 08:01:00,
2013-03-10 01:11:00,18.0,6.0,-100.00,West,273,3.0,6.0,58,0.00,,,0.12,1.000000,,2013-03-10 08:11:00,
2013-03-10 01:21:00,18.0,6.0,-100.00,West,273,3.0,6.0,58,0.00,,,0.12,1.000000,,2013-03-10 08:21:00,
2013-03-10 01:52:00,17.0,6.0,-100.00,West,279,3.0,7.0,60,0.00,,,0.12,1.000000,,2013-03-10 08:52:00,
2013-03-10 03:01:00,17.0,6.0,-100.00,West,279,3.0,7.0,60,0.00,,,0.12,1.000000,,2013-03-10 09:01:00,
2013-03-10 03:11:00,17.0,6.0,-100.00,West,279,3.0,7.0,60,0.00,,,0.12,1.000000,,2013-03-10 09:11:00,
2013-03-10 03:21:00,17.0,6.0,-100.00,West,279,3.0,7.0,60,0.00,,,0.12,1.000000,,2013-03-10 09:21:00,
2013-03-10 03:52:00,19.0,2.0,-100.00,West,261,6.0,9.0,47,0.00,,,0.12,1.000000,,2013-03-10 09:52:00,
2013-03-10 04:01:00,19.0,2.0,-100.00,West,261,6.0,9.0,47,0.00,,,0.12,1.000000,,2013-03-10 10:01:00,
2013-03-10 04:11:00,19.0,2.0,-100.00,West,261,6.0,9.0,47,0.00,,,0.12,1.000000,,2013-03-10 10:11:00,
2013-03-10 04:21:00,19.0,2.0,-100.00,West,261,6.0,9.0,47,0.00,,,0.12,1.000000,,2013-03-10 10:21:00,
2013-03-10 04:52:00,17.0,1.0,-100.00,WNW,289,4.0,16.0,49,0.00,,,0.12,1.000000,,2013-03-10 10:52:00,
2013-03-10 05:01:00,17.0,1.0,-100.00,WNW,289,4.0,16.0,49,0.00,,,0.12,1.000000,,2013-03-10 11:01:00,
2013-03-10 05:12:00,17.0,1.0,-100.00,WNW,289,4.0,16.0,49,0.00,,,0.12,1.000000,,2013-03-10 11:12:00,
2013-03-10 05:21:00,17.0,1.0,-100.00,WNW,289,4.0,16.0,49,0.00,,,0.12,1.000000,,2013-03-10 11:21:00,
2013-03-10 07:52:00,20.0,-1.0,-100.00,West,271,7.0,17.0,38,-99.99,,,0.12,1.000000,,2013-03-10 13:52:00,
2013-03-10 08:01:00,20.0,-1.0,-100.00,West,271,7.0,17.0,38,-99.99,,,0.12,1.000000,,2013-03-10 14:01:00,
2013-03-10 08:11:00,20.0,-1.0,-100.00,West,271,7.0,17.0,38,-99.99,,,0.12,1.000000,,2013-03-10 14:11:00,
2013-03-10 08:21:00,20.0,-1.0,-100.00,West,271,7.0,17.0,38,-99.99,,,0.12,1.000000,,2013-03-10 14:21:00,
2013-03-10 08:52:00,22.0,-3.0,-100.00,WSW,257,10.0,17.0,33,0.00,,,0.12,10.000000,,2013-03-10 14:52:00,
2013-03-10 09:01:00,22.0,-3.0,-100.00,WSW,257,10.0,17.0,33,0.00,,,0.12,10.000000,,2013-03-10 15:01:00,
2013-03-10 09:11:00,22.0,-3.0,-100.00,WSW,257,10.0,17.0,33,0.00,,,0.12,10.000000,,2013-03-10 15:11:00,
2013-03-10 09:21:00,22.0,-3.0,-100.00,WSW,257,10.0,17.0,33,0.00,,,0.12,10.000000,,2013-03-10 15:21:00,
2013-03-10 09:52:00,27.0,-3.0,-100.00,West,259,11.0,20.0,26,0.00,,,0.12,199.000000,,2013-03-10 15:52:00,
2013-03-10 10:01:00,27.0,-3.0,-100.00,West,259,11.0,20.0,26,0.00,,,0.12,199.000000,,2013-03-10 16:01:00,
2013-03-10 10:12:00,27.0,-3.0,-100.00,West,259,11.0,20.0,26,0.00,,,0.12,199.000000,,2013-03-10 16:12:00,
2013-03-10 10:21:00,27.0,-3.0,-100.00,West,259,11.0,20.0,26,0.00,,,0.12,199.000000,,2013-03-10 16:21:00,
2013-03-10 10:52:00,29.0,0.0,-100.00,West,259,13.0,23.0,28,0.00,,,0.12,375.000000,,2013-03-10 16:52:00,
2013-03-10 11:01:00,29.0,0.0,-100.00,West,259,13.0,23.0,28,0.00,,,0.12,375.000000,,2013-03-10 17:01:00,
2013-03-10 11:11:00,29.0,0.0,-100.00,West,259,13.0,23.0,28,0.00,,,0.12,375.000000,,2013-03-10 17:11:00,
2013-03-10 11:21:00,29.0,0.0,-100.00,West,259,13.0,23.0,28,0.00,,,0.12,375.000000,,2013-03-10 17:21:00,
2013-03-10 11:51:00,33.0,1.0,-100.00,WSW,250,11.0,26.0,25,0.00,,,0.12,576.000000,,2013-03-10 17:51:00,
2013-03-10 12:01:00,33.0,1.0,-100.00,WSW,250,11.0,26.0,25,0.00,,,0.12,576.000000,,2013-03-10 18:01:00,
2013-03-10 12:11:00,33.0,1.0,-100.00,WSW,250,11.0,26.0,25,0.00,,,0.12,576.000000,,2013-03-10 18:11:00,
2013-03-10 12:21:00,33.0,1.0,-100.00,WSW,250,11.0,26.0,25,0.00,,,0.12,576.000000,,2013-03-10 18:21:00,
2013-03-10 12:42:00,36.0,5.0,-100.00,WSW,251,10.0,22.0,27,0.00,,,0.12,712.000000,,2013-03-10 18:42:00,
2013-03-10 12:52:00,36.0,5.0,-100.00,WSW,251,10.0,22.0,27,0.00,,,0.12,712.000000,,2013-03-10 18:52:00,
2013-03-10 13:01:00,36.0,5.0,-100.00,WSW,251,10.0,22.0,27,0.00,,,0.12,712.000000,,2013-03-10 19:01:00,
2013-03-10 13:11:00,36.0,5.0,-100.00,WSW,251,10.0,22.0,27,0.00,,,0.12,712.000000,,2013-03-10 19:11:00,
2013-03-10 13:21:00,36.0,5.0,-100.00,WSW,251,10.0,22.0,27,0.00,,,0.12,712.000000,,2013-03-10 19:21:00,
2013-03-10 13:42:00,38.0,9.0,-100.00,WSW,246,11.0,24.0,30,0.00,,,0.03,781.000000,,2013-03-10 19:42:00,
2013-03-10 13:53:00,38.0,9.0,-100.00,WSW,246,11.0,24.0,30,0.00,,,0.03,781.000000,,2013-03-10 19:53:00,
2013-03-10 14:02:00,38.0,9.0,-100.00,WSW,246,11.0,24.0,30,0.00,,,0.03,781.000000,,2013-03-10 20:02:00,
2013-03-10 14:12:00,38.0,9.0,-100.00,WSW,246,11.0,24.0,30,0.00,,,0.03,781.000000,,2013-03-10 20:12:00,
2013-03-10 14:22:00,38.0,9.0,-100.00,WSW,246,11.0,24.0,30,0.00,,,0.03,781.000000,,2013-03-10 20:22:00,
2013-03-10 14:53:00,42.0,11.0,-100.00,West,265,10.0,17.0,28,0.00,,,0.00,782.000000,,2013-03-10 20:53:00,
2013-03-10 15:02:00,42.0,11.0,-100.00,West,265,10.0,17.0,28,0.00,,,0.00,782.000000,,2013-03-10 21:02:00,
2013-03-10 15:12:00,42.0,11.0,-100.00,West,265,10.0,17.0,28,0.00,,,0.00,782.000000,,2013-03-10 21:12:00,
2013-03-10 15:23:00,42.0,11.0,-100.00,West,265,10.0,17.0,28,0.00,,,0.00,782.000000,,2013-03-10 21:23:00,
2013-03-10 15:43:00,41.0,13.0,-100.00,West,264,9.0,19.0,31,0.00,,,0.00,708.000000,,2013-03-10 21:43:00,
2013-03-10 15:53:00,41.0,13.0,-100.00,West,264,9.0,19.0,31,0.00,,,0.00,708.000000,,2013-03-10 21:53:00,
2013-03-10 16:02:00,41.0,13.0,-100.00,West,264,9.0,19.0,31,0.00,,,0.00,708.000000,,2013-03-10 22:02:00,
2013-03-10 16:12:00,41.0,13.0,-100.00,West,264,9.0,19.0,31,0.00,,,0.00,708.000000,,2013-03-10 22:12:00,
2013-03-10 16:22:00,41.0,13.0,-100.00,West,264,9.0,19.0,31,0.00,,,0.00,708.000000,,2013-03-10 22:22:00,
2013-03-10 16:43:00,42.0,12.0,-100.00,WSW,249,10.0,18.0,29,0.00,,,0.00,603.000000,,2013-03-10 22:43:00,
2013-03-10 16:53:00,42.0,12.0,-100.00,WSW,249,10.0,18.0,29,0.00,,,0.00,603.000000,,2013-03-10 22:53:00,
2013-03-10 17:03:00,42.0,12.0,-100.00,WSW,249,10.0,18.0,29,0.00,,,0.00,603.000000,,2013-03-10 23:03:00,
2013-03-10 17:12:00,42.0,12.0,-100.00,WSW,249,10.0,18.0,29,0.00,,,0.00,603.000000,,2013-03-10 23:12:00,
2013-03-10 17:22:00,42.0,12.0,-100.00,WSW,249,10.0,18.0,29,0.00,,,0.00,603.000000,,2013-03-10 23:22:00,
2013-03-10 17:43:00,41.0,12.0,-100.00,West,267,9.0,18.0,30,0.00,,,0.00,524.000000,,2013-03-10 23:43:00,
2013-03-10 17:52:00,41.0,12.0,-100.00,West,267,9.0,18.0,30,0.00,,,0.00,524.000000,,2013-03-10 23:52:00,
2013-03-10 18:02:00,41.0,12.0,-100.00,West,267,9.0,18.0,30,0.00,,,0.00,524.000000,,2013-03-11 00:02:00,
2013-03-10 18:12:00,41.0,12.0,-100.00,West,267,9.0,18.0,30,0.00,,,0.00,524.000000,,2013-03-11 00:12:00,
2013-03-10 18:22:00,41.0,12.0,-100.00,West,267,9.0,18.0,30,0.00,,,0.00,524.000000,,2013-03-11 00:22:00,
2013-03-10 18:43:00,37.0,11.0,-100.00,WNW,284,6.0,17.0,33,0.00,,,0.00,303.000000,,2013-03-11 00:43:00,
2013-03-10 18:53:00,37.0,11.0,-100.00,WNW,284,6.0,17.0,33,0.00,,,0.00,303.000000,,2013-03-11 00:53:00,
2013-03-10 19:03:00,37.0,11.0,-100.00,WNW,284,6.0,17.0,33,0.00,,,0.00,303.000000,,2013-03-11 01:03:00,
2013-03-10 19:13:00,37.0,11.0,-100.00,WNW,284,6.0,17.0,33,0.00,,,0.00,303.000000,,2013-03-11 01:13:00,
2013-03-10 19:22:00,37.0,11.0,-100.00,WNW,284,6.0,17.0,33,0.00,,,0.00,303.000000,,2013-03-11 01:22:00,
2013-03-10 19:43:00,34.0,11.0,-100.00,WNW,286,8.0,17.0,37,0.00,,,0.00,49.000000,,2013-03-11 01:43:00,
2013-03-10 19:53:00,34.0,11.0,-100.00,WNW,286,8.0,17.0,37,0.00,,,0.00,49.000000,,2013-03-11 01:53:00,
2013-03-10 20:02:00,34.0,11.0,-100.00,WNW,286,8.0,17.0,37,0.00,,,0.00,49.000000,,2013-03-11 02:02:00,
2013-03-10 20:12:00,34.0,11.0,-100.00,WNW,286,8.0,17.0,37,0.00,,,0.00,49.000000,,2013-03-11 02:12:00,
2013-03-10 20:22:00,34.0,11.0,-100.00,WNW,286,8.0,17.0,37,0.00,,,0.00,49.000000,,2013-03-11 02:22:00,
2013-03-10 20:42:00,31.0,11.0,-100.00,West,281,7.0,17.0,42,0.00,,,0.00,1.000000,,2013-03-11 02:42:00,
2013-03-10 20:53:00,31.0,11.0,-100.00,West,281,7.0,17.0,42,0.00,,,0.00,1.000000,,2013-03-11 02:53:00,
2013-03-10 21:02:00,31.0,11.0,-100.00,West,281,7.0,17.0,42,0.00,,,0.00,1.000000,,2013-03-11 03:02:00,
2013-03-10 21:12:00,31.0,11.0,-100.00,West,281,7.0,17.0,42,0.00,,,0.00,1.000000,,2013-03-11 03:12:00,
2013-03-10 21:22:00,31.0,11.0,-100.00,West,281,7.0,17.0,42,0.00,,,0.00,1.000000,,2013-03-11 03:22:00,
2013-03-10 21:43:00,31.0,12.0,-100.00,West,263,12.0,20.0,44,0.00,,,0.00,1.000000,,2013-03-11 03:43:00,
2013-03-10 21:53:00,31.0,12.0,-100.00,West,263,12.0,20.0,44,0.00,,,0.00,1.000000,,2013-03-11 03:53:00,
2013-03-10 22:02:00,31.0,12.0,-100.00,West,263,12.0,20.0,44,0.00,,,0.00,1.000000,,2013-03-11 04:02:00,
2013-03-10 22:12:00,31.0,12.0,-100.00,West,263,12.0,20.0,44,0.00,,,0.00,1.000000,,2013-03-11 04:12:00,
2013-03-10 22:22:00,31.0,12.0,-100.00,West,263,12.0,20.0,44,0.00,,,0.00,1.000000,,2013-03-11 04:22:00,
2013-03-10 22:43:00,30.0,12.0,-100.00,WSW,249,10.0,17.0,46,0.00,,,0.00,1.000000,,2013-03-11 04:43:00,
2013-03-10 22:53:00,30.0,12.0,-100.00,WSW,249,10.0,17.0,46,0.00,,,0.00,1.000000,,2013-03-11 04:53:00,
2013-03-10 23:03:00,30.0,12.0,-100.00,WSW,249,10.0,17.0,46,0.00,,,0.00,1.000000,,2013-03-11 05:03:00,
2013-03-10 23:12:00,30.0,12.0,-100.00,WSW,249,10.0,17.0,46,0.00,,,0.00,1.000000,,2013-03-11 05:12:00,
2013-03-10 23:22:00,30.0,12.0,-100.00,WSW,249,10.0,17.0,46,0.00,,,0.00,1.000000,,2013-03-11 05:22:00,
2013-03-10 23:43:00,31.0,12.0,-100.00,SW,229,8.0,18.0,44,0.00,,,0.00,1.000000,,2013-03-11 05:43:00,
2013-03-10 23:52:00,31.0,12.0,-100.00,SW,229,8.0,18.0,44,0.00,,,0.00,1.000000,,2013-03-11 05:52:00,